Location: Melizzano
(41.1500°N, 14.5000°E)
Time: 23:08:02
(UTC+00:00)

Cosmos 1833 Rocket - Pass Details

Date: 11 May 2021
Orbit: 831 x 841 km, 71.0° (Epoch: 24 June)

Event Time Altitude Azimuth Distance (km) Brightness Sun altitude
Rises 20:58:31 0° 330° (NNW) 3,403 7.3 -24.5°
Reaches altitude 10° 21:01:02 10° 325° (NW) 2,464 6.2 -24.8°
Maximum altitude 21:06:25 47° 253° (WSW) 1,107 3.3 -25.3°
Enters shadow 21:07:33 41° 220° (SW) 1,199 3.3 -25.4°
